Location: Piedmont
(45.8748°N, 74.1254°W)
Time: 17:11:24
(UTC+00:00)

X-37B - Pass Details

Date: 06 December 2021
Orbit: 334 x 337 km, 45.0° (Epoch: 11 January)

Event Time Altitude Azimuth Distance (km) Brightness Sun altitude
Rises 22:59:34 0° 217° (SW) 2,093 5.1 -18.0°
Reaches altitude 10° 23:01:55 10° 198° (SSW) 1,261 3.6 -18.4°
Enters shadow 23:03:20 17° 169° (S) 945 2.5 -18.6°
